RH
24 27 13 35 43 46 47 46 45 40 38 38 34 30 31 24 24 25 26 22 24 23 23 22 22 24 27 28 30 33 38 36 30 30 36 34 27 28 29 29 30 30 32 33
29 17 9 39 44 45 46 46 43 36 36 36 32 29 27 30 27 28 28 27 25 22 22 23 23 24 26 28 32 28 29 29 30 30 34 42 45 41 37 31 31 31 32 35
16 9 16 32 41 43 45 41 34 39 41 36 35 26 26 26 29 28 24 25 21 20 21 24 23 24 27 27 26 27 30 33 35 39 38 36 38 39 44 37 36 33 33 35
18 11 11 14 32 41 41 38 38 40 38 38 37 38 26 21 18 20 22 22 22 22 21 24 24 24 25 26 26 27 32 36 38 39 39 38 34 35 38 44 40 35 37 45
10 17 39 38 34 37 38 37 38 39 39 36 31 34 28 30 28 23 24 23 21 20 21 23 23 25 26 26 26 28 32 36 39 37 37 46 39 31 29 32 36 37 40 42
12 14 24 36 40 39 39 35 37 39 38 43 26 34 29 31 32 27 28 25 21 22 21 22 24 25 26 26 27 30 35 33 37 37 33 27 28 30 33 33 34 34 33 34
20 18 12 26 38 37 38 40 40 43 48 52 32 34 32 32 29 27 28 28 26 23 22 22 24 27 28 29 31 31 30 29 29 29 29 28 27 27 27 27 29 33 36 32
26 24 13 11 33 32 37 37 39 54 61 49 31 33 22 20 27 31 28 30 28 27 26 27 28 29 28 29 27 28 26 28 28 28 31 31 30 30 31 31 32 32 32 33
30 27 18 26 12 32 36 37 27 34 34 48 36 32 29 19 31 29 30 31 31 31 30 29 30 29 30 27 31 32 28 28 28 31 34 37 41 41 40 40 40 37 36 38
27 35 28 26 27 27 31 28 39 41 54 58 44 36 31 26 23 22 29 32 35 34 34 36 37 36 36 36 33 30 35 36 36 33 34 35 41 45 42 46 44 43 42 64
26 35 28 32 35 31 35 32 32 31 34 55 57 38 27 26 29 31 29 33 33 38 42 42 40 40 41 41 39 36 40 42 40 43 42 44 49 50 46 46 48 47 52 60
21 37 37 28 32 33 33 28 28 32 34 34 36 38 30 25 28 35 37 29 29 30 39 38 40 42 43 44 44 44 45 45 42 45 46 55 53 56 58 51 50 62 74 77
27 42 45 39 37 28 30 32 32 31 31 36 44 40 35 35 33 32 32 33 32 35 28 34 40 42 47 46 46 47 46 46 48 52 54 57 58 63 63 60 48 42 49 61
36 31 39 41 27 22 26 21 27 33 32 31 29 29 30 30 29 28 27 28 34 32 46 42 42 42 46 46 47 49 49 49 50 54 56 60 61 64 65 64 60 52 52 48
36 40 39 38 37 32 24 22 22 23 28 32 28 28 20 14 12 15 21 22 28 37 44 41 47 46 49 51 51 50 51 50 53 57 58 62 65 70 71 68 57 48 54 55
41 38 38 37 38 38 35 29 29 27 24 25 20 18 14 18 21 26 35 54 57 58 55 53 53 49 45 44 46 47 49 53 57 59 61 66 70 71 69 61 52 48 49 56
40 39 39 42 44 45 43 36 30 29 34 29 26 21 23 21 29 51 55 58 62 60 59 59 57 57 57 56 55 55 56 57 58 60 65 67 67 69 70 59 50 49 51 58
41 41 46 52 55 64 33 26 31 35 33 28 28 31 30 40 52 58 67 65 64 62 61 62 61 61 60 59 59 58 58 60 61 61 62 61 67 71 72 53 48 54 60 71
46 51 60 60 63 41 36 41 42 42 31 35 37 31 39 57 68 77 68 64 76 73 63 60 62 61 60 64 64 63 61 53 47 46 49 51 54 67 59 53 55 64 65 89
50 51 57 64 83 74 41 35 37 44 47 45 53 62 52 66 69 77 72 70 71 73 71 59 62 70 70 72 71 68 76 81 77 78 68 61 59 59 64 62 62 66 67 86
58 60 58 61 72 57 48 50 54 61 52 51 58 64 63 73 74 80 76 76 64 70 62 66 70 70 71 69 64 57 70 85 87 86 84 86 75 76 78 78 72 70 78 95
56 59 71 82 82 79 52 53 61 53 60 62 66 63 75 80 80 88 96 87 69 65 64 74 60 66 64 78 83 78 77 83 83 89 90 81 76 83 91 97 95 88 86 88
64 57 54 56 52 46 52 69 76 80 82 84 91 100 99 99 94 91 74 68 77 88 90 85 81 74 76 91 97 74 71 99 97 99 96 100 98 96 93 98 98 99 99 99
79 71 64 62 59 58 63 70 75 80 85 98 97 98 99 100 87 91 84 72 73 75 72 58 64 73 79 61 59 70 77 76 84 79 91 88 82 88 100 96 97 97 96 97
87 82 78 77 77 87 93 96 95 99 87 99 100 100 92 85 77 71 58 45 40 37 36 45 50 59 71 95 99 98 98 97 98 91 86 84 89 91 89 95 100 100 96 97
98 90 88 92 100 99 100 99 98 100 99 98 95 75 50 39 37 34 43 47 42 38 42 47 52 67 68 62 64 78 89 94 97 97 94 96 97 98 97 98 98 97 97 96
Wind_Speed
14 19 19 3 6 14 20 21 25 26 21 27 27 22 13 15 18 24 21 26 24 26 26 28 27 29 30 30 31 28 28 25 20 18 20 24 25 25 24 23 22 23 24 26
21 28 11 8 9 15 18 24 27 29 25 18 21 26 22 14 19 24 30 32 30 29 27 27 20 27 30 30 30 26 23 22 22 22 22 25 25 28 29 30 30 30 30 31
25 23 10 14 15 15 20 25 24 21 24 23 17 28 28 28 27 29 26 27 24 34 28 30 19 19 27 29 28 28 26 27 28 28 29 30 33 30 31 32 34 36 36 37
23 24 18 16 23 15 24 21 16 16 19 25 24 15 31 27 23 24 25 24 25 26 29 31 24 23 24 29 29 30 31 31 32 33 34 37 35 34 31 33 34 35 36 38
31 15 10 14 15 18 24 21 15 18 18 26 19 7 19 22 17 11 15 22 22 19 26 25 26 28 30 31 33 32 34 35 35 36 39 39 39 33 31 35 37 37 36 37
38 31 23 17 14 14 17 15 15 20 16 7 20 2 18 14 21 11 23 22 13 15 21 22 26 28 27 27 32 37 37 36 36 36 36 36 37 36 35 33 32 33 34 35
38 40 34 28 21 16 20 18 4 1 3 7 4 8 16 15 13 26 25 22 15 15 20 24 25 24 24 25 26 29 29 30 31 33 35 32 30 30 30 30 30 33 34 35
22 21 31 31 39 27 25 24 11 6 4 5 12 7 13 17 19 13 17 17 20 19 15 17 19 21 22 25 28 29 34 30 28 25 23 24 25 27 31 33 34 35 34 34
14 19 18 12 31 37 28 28 26 18 17 5 11 18 25 14 9 21 19 9 12 15 19 20 21 24 23 22 26 28 24 23 27 27 23 19 19 28 32 34 34 35 33 31
25 14 15 20 22 30 34 25 16 19 3 5 8 20 16 16 18 24 20 22 17 19 21 22 24 28 27 29 28 26 17 20 29 35 32 29 39 35 35 34 36 35 32 31
39 22 13 11 19 31 33 31 18 15 18 5 3 7 12 18 20 21 16 18 26 31 26 27 31 35 34 31 28 27 29 29 33 33 36 36 36 34 36 35 35 36 32 34
34 21 34 29 15 14 25 31 32 26 13 19 20 19 25 28 26 22 23 31 32 33 36 38 36 32 31 31 31 31 30 38 36 31 33 33 32 31 32 32 32 32 29 31
29 24 20 9 19 26 29 32 30 33 34 30 18 19 25 21 21 28 36 43 36 38 37 38 41 37 34 33 35 34 37 34 34 36 35 35 34 34 33 34 33 32 32 34
21 34 28 28 16 11 17 24 30 28 18 17 33 36 29 31 35 41 45 48 42 42 38 38 37 39 41 39 35 35 37 35 35 35 35 36 37 36 38 39 37 35 35 35
27 30 33 36 30 28 32 37 29 32 31 29 38 38 43 46 49 51 53 54 55 51 41 42 37 37 33 35 39 40 41 41 36 35 37 39 38 36 35 39 38 36 35 34
32 35 34 36 32 31 37 42 40 41 43 45 51 58 49 44 41 47 41 38 36 31 32 36 39 43 49 51 47 47 42 37 35 37 39 40 39 38 41 44 40 37 36 34
32 32 31 33 28 29 42 37 42 47 43 44 45 45 41 48 48 39 37 38 35 31 29 27 25 28 33 36 37 37 33 33 37 40 39 40 43 45 44 43 41 38 34 33
29 28 24 15 11 10 45 36 31 28 33 32 36 38 45 51 46 37 31 28 28 32 30 27 26 26 28 31 31 34 36 35 37 38 39 41 44 46 45 42 43 40 37 37
31 23 14 12 18 36 38 24 25 24 40 39 45 45 37 40 27 16 24 28 19 19 28 32 29 31 28 25 27 30 34 32 35 40 41 44 47 49 44 44 42 40 40 39
42 34 25 21 8 16 46 39 28 22 41 30 28 27 28 22 22 22 17 18 25 30 30 30 27 20 20 21 25 32 31 29 30 32 38 42 43 46 47 43 42 41 42 43
30 42 43 39 27 45 47 36 28 26 39 33 30 34 30 25 26 28 31 35 34 35 39 39 37 36 31 32 38 43 49 47 44 44 43 37 37 38 39 40 40 42 43 44
37 31 36 30 23 33 41 29 30 37 38 36 38 39 34 31 28 24 26 34 39 44 44 41 48 47 51 51 44 48 49 43 41 43 46 43 46 41 39 40 41 43 41 40
45 50 41 35 37 45 31 22 27 29 30 34 35 27 28 30 27 32 39 48 42 41 45 47 49 48 52 51 48 44 43 53 61 51 51 50 48 49 49 43 40 38 38 41
41 38 42 42 51 50 48 43 43 43 42 42 45 44 34 31 44 37 42 47 43 41 46 48 52 47 49 45 43 41 42 45 51 48 46 49 46 35 32 32 34 37 38 37
39 38 47 48 48 42 40 49 53 51 55 27 33 32 33 38 40 41 43 42 41 44 43 41 43 43 39 38 40 36 38 37 33 34 33 33 32 33 33 36 41 42 42 43
43 47 47 44 42 42 44 36 41 43 38 30 32 36 39 41 41 39 38 38 38 37 36 36 36 36 38 38 37 35 32 33 31 32 32 32 34 33 33 38 42 43 42 34
Wind_Direction
271 272 269 292 272 293 298 301 300 300 303 300 296 289 310 262 249 271 271 277 261 251 257 266 257 254 250 253 262 266 267 271 280 282 271 271 276 275 274 274 270 268 267 268
257 259 284 262 260 284 286 287 285 291 296 306 292 275 265 276 267 270 282 290 272 252 252 256 262 244 246 257 256 265 266 273 284 290 292 282 278 275 275 271 270 272 271 270
262 263 258 252 254 268 268 283 293 289 304 304 316 285 270 261 267 270 271 285 270 245 253 249 253 264 250 256 258 264 267 270 277 277 280 287 285 282 279 279 279 277 277 276
264 266 266 252 253 250 272 284 285 293 303 306 304 297 300 303 294 281 276 280 281 267 246 245 250 256 259 255 256 261 263 265 269 274 282 285 289 287 288 282 278 277 274 272
254 251 223 242 256 259 268 274 266 284 292 296 291 294 310 332 356 335 316 305 277 267 234 244 248 250 251 255 260 257 260 263 269 276 281 280 286 287 284 284 285 284 280 275
251 248 239 246 229 257 258 263 268 267 280 284 291 282 302 5 344 346 336 326 270 238 240 239 242 246 249 251 252 249 253 265 268 273 278 281 283 285 284 283 281 277 275 273
243 249 244 235 240 223 239 248 279 314 178 228 293 321 275 322 342 319 325 319 319 282 263 253 245 244 245 250 250 256 262 267 269 271 276 280 279 278 280 280 280 279 279 280
235 260 251 229 227 218 226 225 210 195 204 229 284 248 276 305 321 328 322 297 298 295 275 269 263 260 264 276 275 278 275 273 275 269 266 266 269 276 279 280 280 279 280 282
225 249 255 249 233 226 225 225 235 243 257 267 246 257 274 309 294 335 346 292 295 296 287 281 281 279 283 290 287 273 266 278 269 270 268 272 292 303 296 286 280 278 277 280
234 274 245 239 231 231 223 241 225 224 220 235 233 234 251 270 289 302 314 303 290 293 285 291 292 288 292 295 294 261 267 289 295 285 274 272 301 308 308 293 282 280 280 277
229 229 223 205 209 212 210 220 232 239 238 198 222 246 256 279 293 301 291 280 289 298 291 291 287 292 298 296 293 272 271 290 294 287 282 290 295 306 311 300 291 286 283 280
223 232 247 236 203 223 231 230 237 234 250 245 260 256 267 283 290 278 271 290 296 294 286 291 292 291 289 290 288 285 285 295 296 289 285 295 299 309 318 309 296 287 284 273
214 220 234 246 241 243 233 229 241 253 256 258 261 268 286 283 277 276 279 288 286 287 295 290 292 287 282 285 286 283 291 295 299 298 294 294 299 300 311 318 299 287 283 277
216 223 219 219 228 188 228 245 241 244 255 266 261 273 277 283 286 289 287 288 286 288 286 286 283 286 284 286 285 289 290 292 292 290 287 287 295 297 306 309 306 290 288 283
225 229 230 238 246 250 258 267 260 250 260 268 277 281 285 287 293 297 295 294 294 293 288 274 274 281 273 281 287 289 285 288 286 283 282 283 285 289 298 307 304 295 287 282
221 228 237 241 247 255 260 264 266 268 269 272 280 283 288 298 294 298 299 304 304 305 297 288 279 275 266 274 278 281 276 278 279 279 281 283 287 294 302 305 298 289 283 280
213 221 234 246 250 257 264 262 263 265 269 275 276 286 295 299 301 300 298 296 300 299 301 294 297 279 277 272 273 274 276 277 277 279 282 285 292 295 297 297 291 288 283 278
224 227 234 249 247 248 255 262 262 269 272 275 276 282 291 288 287 291 290 294 293 287 285 288 294 290 288 290 287 287 285 279 279 284 287 290 290 290 291 288 285 282 281 281
235 226 228 233 225 255 254 253 258 269 277 279 278 284 283 281 282 264 270 283 284 294 285 285 293 296 295 293 295 298 296 289 283 286 288 289 288 286 286 289 286 284 281 276
238 238 235 243 251 252 271 272 270 263 261 272 269 278 288 259 253 269 264 278 297 296 292 288 289 298 291 290 292 293 286 280 281 284 287 283 283 282 285 286 285 283 281 273
232 233 234 236 239 257 258 260 270 259 267 269 262 262 267 266 271 280 287 303 298 296 295 293 297 292 283 281 287 291 284 280 275 274 274 281 285 283 282 284 283 280 276 270
227 222 226 232 232 259 261 260 246 265 270 270 262 260 264 269 269 276 281 297 299 292 287 288 292 298 295 290 292 297 284 265 266 268 271 272 275 270 274 282 283 278 270 268
233 231 231 232 242 257 265 270 252 260 264 260 253 253 253 263 259 283 287 289 292 288 282 283 286 290 292 286 282 294 293 278 279 283 289 274 270 275 280 281 278 270 258 250
227 231 234 245 249 256 258 259 261 262 263 255 255 252 258 273 282 276 283 292 294 287 287 290 286 284 281 284 280 284 280 280 279 285 280 281 280 275 272 270 265 260 258 256
242 241 244 244 251 249 248 252 254 255 259 262 254 263 293 291 288 290 292 295 293 290 288 285 286 290 293 293 289 282 285 283 283 282 283 284 282 281 275 269 262 258 259 257
245 251 250 249 245 239 243 237 239 239 249 287 299 293 289 291 292 293 293 293 292 292 291 290 291 294 296 299 295 291 293 292 293 293 292 286 282 280 279 267 254 252 250 269